Weather History for KDXX - April, 2014

Change the Weather History Date:

Saturday, April 26, 2014

  Actual Average (KAQP) Record (KAQP)
Temperature  
Mean Temperature 47 °F -  
Max Temperature 57 °F 61 °F 138 °F (1997)
Min Temperature 37 °F 35 °F 26 °F (2002)
Degree Days  
Heating Degree Days 18    
Moisture  
Dew Point 36 °F    
Average Humidity 65    
Maximum Humidity 93    
Minimum Humidity 44    
Precipitation  
Precipitation 0.00 in - - ()
Sea Level Pressure  
Sea Level Pressure 29.86 in    
Wind  
Wind Speed 14 mph (East)    
Max Wind Speed 29 mph    
Max Gust Speed 39 mph    
Visibility 10 miles    
Events Rain , Thunderstorm    
Averages and records for this station are not official NWS values.
T = Trace of Precipitation, MM = Missing Value Source: NWS Daily Summary

Daily Weather History Graph

Daily Weather History Graph

Search for Another Location

Airport or City:

Trip Planner

Search our weather history database for the weather conditions in past years. The results will help you decide how hot, cold, wet, or windy it might be!

Date:

Astronomy

Apr. 26, 2014 Rise Set
Actual Time 6:21 AM CDT 8:24 PM CDT
Civil Twilight 5:49 AM CDT 8:55 PM CDT
Nautical Twilight 5:10 AM CDT 9:35 PM CDT
Astronomical Twilight 4:27 AM CDT 10:18 PM CDT
Moon 4:54 AM CDT (4/26) 5:47 PM CDT (4/26)
Length of Visible Light 15h 06m
Length of Day
14h 02m
Waning Crescent, 8% of the Moon is Illuminated
Apr 26
Waning Crescent
Apr 29
New
May 6
First Quarter
May 14
Full
May 21
Last Quarter

Hourly Weather History & Observations

Time (CDT) Temp. Windchill Dew Point Humidity Pressure Visibility Wind Dir Wind Speed Gust Speed Precip Events Conditions
12:14 AM 44.6 °F 41.4 °F 39.2 °F 81% 29.89 in 10.0 mi NNE 5.8 mph - N/A   Clear
12:33 AM 44.6 °F 40.7 °F 39.2 °F 81% 29.89 in 10.0 mi NNE 6.9 mph - N/A   Clear
12:53 AM 44.6 °F 39.7 °F 39.2 °F 81% 29.89 in 10.0 mi NE 9.2 mph - N/A   Clear
1:14 AM 44.6 °F 39.2 °F 39.2 °F 81% 29.90 in 10.0 mi ENE 10.4 mph - N/A   Clear
1:33 AM 44.6 °F 39.7 °F 39.2 °F 81% 29.90 in 10.0 mi East 9.2 mph - N/A   Clear
1:54 AM 44.6 °F 40.2 °F 39.2 °F 81% 29.90 in 10.0 mi East 8.1 mph - N/A   Clear
2:13 AM 42.8 °F 38.0 °F 37.4 °F 81% 29.91 in 10.0 mi East 8.1 mph - N/A   Clear
2:34 AM 44.6 °F 38.8 °F 37.4 °F 76% 29.90 in 10.0 mi East 11.5 mph - N/A   Clear
2:54 AM 42.8 °F 37.5 °F 37.4 °F 81% 29.91 in 10.0 mi East 9.2 mph - N/A   Clear
3:13 AM 42.8 °F 37.5 °F 35.6 °F 76% 29.90 in 10.0 mi East 9.2 mph - N/A   Clear
3:34 AM 41.0 °F 35.8 °F 35.6 °F 81% 29.90 in 10.0 mi East 8.1 mph - N/A   Clear
3:54 AM 39.2 °F 33.6 °F 35.6 °F 87% 29.91 in 10.0 mi East 8.1 mph - N/A   Clear
4:13 AM 39.2 °F 34.2 °F 35.6 °F 87% 29.91 in 10.0 mi East 6.9 mph - N/A   Clear
4:34 AM 39.2 °F 33.6 °F 35.6 °F 87% 29.91 in 10.0 mi East 8.1 mph - N/A   Clear
4:54 AM 39.2 °F 33.6 °F 35.6 °F 87% 29.91 in 10.0 mi East 8.1 mph - N/A   Clear
5:13 AM 39.2 °F 35.0 °F 35.6 °F 87% 29.92 in 10.0 mi East 5.8 mph - N/A   Clear
5:34 AM 37.4 °F 32.8 °F 35.6 °F 93% 29.92 in 10.0 mi East 5.8 mph - N/A   Clear
5:53 AM 37.4 °F 32.8 °F 33.8 °F 87% 29.92 in 10.0 mi ESE 5.8 mph - N/A   Clear
6:14 AM 37.4 °F 32.1 °F 35.6 °F 93% 29.92 in 10.0 mi ESE 6.9 mph - N/A   Clear
6:34 AM 37.4 °F 32.1 °F 35.6 °F 93% 29.93 in 10.0 mi East 6.9 mph - N/A   Clear
6:53 AM 39.2 °F 33.6 °F 35.6 °F 87% 29.94 in 10.0 mi East 8.1 mph - N/A   Clear
7:14 AM 41.0 °F 35.2 °F 35.6 °F 81% 29.94 in 10.0 mi East 9.2 mph - N/A   Clear
7:34 AM 42.8 °F 36.6 °F 37.4 °F 81% 29.94 in 10.0 mi ESE 11.5 mph - N/A   Clear
7:53 AM 42.8 °F 35.4 °F 37.4 °F 81% 29.93 in 10.0 mi ESE 15.0 mph - N/A   Clear
8:14 AM 42.8 °F 35.1 °F 37.4 °F 81% 29.93 in 10.0 mi ESE 16.1 mph - N/A   Clear
8:34 AM 44.6 °F 37.4 °F 37.4 °F 76% 29.93 in 10.0 mi ESE 16.1 mph - N/A   Clear
9:14 AM 44.6 °F 37.8 °F 35.6 °F 71% 29.92 in 10.0 mi East 15.0 mph - N/A   Clear
9:34 AM 44.6 °F 36.1 °F 35.6 °F 71% 29.92 in 10.0 mi ESE 21.9 mph - N/A   Clear
9:53 AM 44.6 °F 37.2 °F 35.6 °F 71% 29.93 in 10.0 mi ESE 17.3 mph 24.2 mph N/A   Clear
10:14 AM 46.4 °F 39.8 °F 35.6 °F 66% 29.94 in 10.0 mi ESE 16.1 mph - N/A   Clear
10:34 AM 50.0 °F - 35.6 °F 58% 29.93 in 10.0 mi ESE 20.7 mph 25.3 mph N/A   Clear
10:53 AM 50.0 °F - 35.6 °F 58% 29.93 in 10.0 mi ESE 19.6 mph 25.3 mph N/A   Clear
11:14 AM 51.8 °F - 35.6 °F 54% 29.92 in 10.0 mi ESE 20.7 mph 28.8 mph N/A   Clear
11:53 AM 51.8 °F - 35.6 °F 54% 29.91 in 10.0 mi East 24.2 mph - N/A   Clear
12:14 PM 53.6 °F - 35.6 °F 51% 29.89 in 10.0 mi ESE 24.2 mph 27.6 mph N/A   Clear
12:34 PM 55.4 °F - 37.4 °F 51% 29.88 in 10.0 mi ESE 24.2 mph 31.1 mph N/A   Clear
12:53 PM 55.4 °F - 37.4 °F 51% 29.87 in 10.0 mi East 20.7 mph 25.3 mph N/A   Clear
1:14 PM 55.4 °F - 35.6 °F 47% 29.85 in 10.0 mi East 21.9 mph 28.8 mph N/A   Clear
1:33 PM 55.4 °F - 37.4 °F 51% 29.85 in 10.0 mi East 24.2 mph 28.8 mph N/A   Clear
1:54 PM 55.4 °F - 37.4 °F 51% 29.83 in 10.0 mi ESE 23.0 mph 32.2 mph N/A   Clear
2:13 PM 57.2 °F - 37.4 °F 48% 29.82 in 10.0 mi ESE 27.6 mph 34.5 mph N/A   Clear
2:33 PM 57.2 °F - 37.4 °F 48% 29.82 in 10.0 mi East 24.2 mph 35.7 mph N/A   Clear
2:54 PM 55.4 °F - 35.6 °F 47% 29.81 in 10.0 mi ESE 28.8 mph 33.4 mph N/A   Clear
3:13 PM 57.2 °F - 35.6 °F 44% 29.80 in 10.0 mi ESE 24.2 mph 35.7 mph N/A   Clear
3:33 PM 57.2 °F - 35.6 °F 44% 29.80 in 10.0 mi East 28.8 mph 35.7 mph N/A   Clear
3:54 PM 55.4 °F - 35.6 °F 47% 29.81 in 10.0 mi ESE 27.6 mph 34.5 mph N/A   Clear
4:13 PM 55.4 °F - 35.6 °F 47% 29.81 in 10.0 mi ESE 25.3 mph 33.4 mph N/A   Clear
4:33 PM 55.4 °F - 35.6 °F 47% 29.80 in 10.0 mi ESE 25.3 mph - N/A   Clear
4:54 PM 53.6 °F - 35.6 °F 51% 29.81 in 10.0 mi East 19.6 mph 31.1 mph N/A Thunderstorm Thunderstorm
5:14 PM 53.6 °F - 35.6 °F 51% 29.79 in 10.0 mi East 24.2 mph 27.6 mph N/A   Mostly Cloudy
5:34 PM 53.6 °F - 35.6 °F 51% 29.78 in 10.0 mi East 25.3 mph 28.8 mph N/A   Mostly Cloudy
5:54 PM 53.6 °F - 35.6 °F 51% 29.77 in 10.0 mi East 23.0 mph 31.1 mph N/A   Mostly Cloudy
6:13 PM 53.6 °F - 35.6 °F 51% 29.78 in 10.0 mi East 21.9 mph 32.2 mph N/A   Mostly Cloudy
6:34 PM 53.6 °F - 35.6 °F 51% 29.77 in 10.0 mi East 24.2 mph 31.1 mph N/A   Overcast
6:53 PM 53.6 °F - 35.6 °F 51% 29.77 in 10.0 mi East 20.7 mph 31.1 mph N/A   Overcast
7:13 PM 51.8 °F - 35.6 °F 54% 29.78 in 10.0 mi East 21.9 mph 29.9 mph N/A   Overcast
7:34 PM 51.8 °F - 33.8 °F 50% 29.78 in 10.0 mi ESE 21.9 mph 29.9 mph N/A   Overcast
7:53 PM 51.8 °F - 33.8 °F 50% 29.77 in 10.0 mi East 24.2 mph 29.9 mph N/A   Overcast
8:13 PM 53.6 °F - 33.8 °F 47% 29.76 in 10.0 mi East 26.5 mph 35.7 mph N/A   Overcast
8:34 PM 51.8 °F - 33.8 °F 50% 29.76 in 10.0 mi East 27.6 mph 39.1 mph N/A   Overcast
8:53 PM 51.8 °F - 33.8 °F 50% 29.76 in 10.0 mi ESE 24.2 mph 35.7 mph N/A   Overcast
9:13 PM 51.8 °F - 33.8 °F 50% 29.78 in 10.0 mi ESE 23.0 mph 31.1 mph N/A   Overcast
9:34 PM 51.8 °F - 35.6 °F 54% 29.79 in 10.0 mi ESE 23.0 mph 31.1 mph N/A   Overcast
9:53 PM 51.8 °F - 35.6 °F 54% 29.80 in 10.0 mi East 20.7 mph 27.6 mph N/A   Overcast
10:13 PM 51.8 °F - 35.6 °F 54% 29.80 in 10.0 mi East 20.7 mph 28.8 mph N/A   Overcast
10:34 PM 51.8 °F - 35.6 °F 54% 29.80 in 10.0 mi East 24.2 mph 29.9 mph N/A   Overcast
10:53 PM 51.8 °F - 37.4 °F 58% 29.79 in 10.0 mi East 25.3 mph 31.1 mph N/A Rain Light Rain
11:13 PM 48.2 °F - 39.2 °F 71% 29.80 in 10.0 mi East 19.6 mph 29.9 mph N/A Rain Light Rain
11:34 PM 48.2 °F - 39.2 °F 71% 29.79 in 10.0 mi East 18.4 mph 24.2 mph N/A   Overcast
11:53 PM 48.2 °F - 41.0 °F 76% 29.78 in 10.0 mi East 24.2 mph 29.9 mph N/A Rain Light Rain